Waarnemingen

Advertentie
Mijn weer
Lille, Frankrijk (7015): temperatuur & dauwpunt: 18.02.2017 16:00:00 - 24.02.2017 16:00:00 (CET)Lille, Frankrijk (7015): temperatuur 5cm: 18.02.2017 16:00:00 - 24.02.2017 16:00:00 (CET)Lille, Frankrijk (7015): temperatuur -20cm & temperatuur -100cm: 18.02.2017 16:00:00 - 24.02.2017 16:00:00 (CET)Lille, Frankrijk (7015): windsnelheid & windstoten: 18.02.2017 16:00:00 - 24.02.2017 16:00:00 (CET)Lille, Frankrijk (7015): windrichting: 18.02.2017 16:00:00 - 24.02.2017 16:00:00 (CET)Lille, Frankrijk (7015): luchtdruk: 18.02.2017 16:00:00 - 24.02.2017 16:00:00 (CET)Lille, Frankrijk (7015): zicht: 18.02.2017 16:00:00 - 24.02.2017 16:00:00 (CET)Lille, Frankrijk (7015): Zonneschijnduur: 18.02.2017 16:00:00 - 24.02.2017 16:00:00 (CET)Lille, Frankrijk (7015): neerslag: 18.02.2017 16:00:00 - 24.02.2017 16:00:00 (CET)
Datum & Tijd tt [°C] td [°C] tt 5cm [°C] tt -20cm [°C] tt -100cm [°C] ff [km/u] ff [kn] fx [km/u] fx [kn] dd ppp [hPa] vv [km] sd [min] rr [mm]
24.02.2017 16:00:00 7,5 2,4 6,4 7,1 7,1 24 13 37 20 NNW 1017,8 27 36 0,0
24.02.2017 15:00:00 6,3 3,5 5,8 7,0 7,0 16 9 29 15 NW 1017,2 20 7 0,2
24.02.2017 14:00:00 6,0 4,0 5,2 6,9 7,0 14 8 22 12 NW 1016,8 17 0 0,0
24.02.2017 13:00:00 4,8 3,5 4,3 6,8 7,0 11 6 31 17 NW 1016,5 6 0 0,8
24.02.2017 12:00:00 5,8 4,4 5,3 6,7 7,0 15 8 32 17 NNW 1016,1 24 1 0,2
24.02.2017 11:00:00 5,5 4,3 4,6 6,6 7,0 13 7 32 17 NNW 1015,3 16 2 0,4
24.02.2017 10:00:00 5,8 3,1 5,2 6,6 7,0 17 9 27 14 WNW 1014,6 28 5 0,0
24.02.2017 09:00:00 4,8 2,5 3,9 6,6 7,0 11 6 18 10 WNW 1013,9 36 0 0,0
24.02.2017 08:00:00 4,1 2,1 2,6 6,7 7,0 11 6 24 13 WNW 1013,0 36 0 0,0
24.02.2017 07:00:00 4,6 2,0 3,3 6,8 7,0 16 8 30 16 WNW 1012,3 38 0 0,0
24.02.2017 06:00:00 4,9 2,4 3,8 6,9 7,0 22 12 34 18 WNW 1011,4 7 0 0,0
24.02.2017 05:00:00 5,2 1,7 4,5 7,0 7,0 18 10 29 16 NW 1010,6 42 0 0,0
24.02.2017 04:00:00 5,7 1,6 5,2 7,1 7,0 22 12 38 20 WNW 1009,8 60 0 0,0
24.02.2017 03:00:00 6,1 1,6 5,4 7,1 7,0 22 12 35 19 WNW 1009,1 60 0 0,0
24.02.2017 02:00:00 6,5 1,4 5,3 7,2 7,0 23 12 37 20 WNW 1007,9 60 0 0,0
24.02.2017 01:00:00 6,5 1,6 5,3 7,4 6,9 23 13 47 25 NW 1006,8 60 0 0,2
24.02.2017 00:00:00 6,8 1,5 5,6 7,5 6,9 32 17 54 29 NW 1005,4 60 0 0,0
23.02.2017 23:00:00 7,6 1,0 6,5 7,6 6,9 37 20 60 33 NW 1004,0 60 0 0,0
23.02.2017 22:00:00 8,2 1,1 7,7 7,7 7,0 37 20 64 35 WNW 1002,2 60 0 0,0
23.02.2017 21:00:00 8,2 2,0 7,6 7,8 6,9 47 26 74 40 W 1000,6 48 0 0,0
23.02.2017 20:00:00 8,3 2,1 7,4 8,0 6,9 49 26 77 42 W 999,5 45 0 0,0
23.02.2017 19:00:00 8,5 2,1 7,8 8,1 6,9 49 26 83 45 W 998,6 39 0 0,0
23.02.2017 18:00:00 9,0 2,3 8,7 8,2 6,9 51 27 91 49 W 997,4 15 8 0,0
23.02.2017 17:00:00 10,0 2,8 10,0 8,3 6,9 58 32 91 49 W 996,5 6 19 0,0
23.02.2017 16:00:00 10,4 3,4 10,5 8,3 6,9 55 30 100 54 W 995,8 9 5 0,0
23.02.2017 15:00:00 10,8 3,8 11,0 8,3 6,9 62 34 98 53 W 995,7 6 24 0,0
23.02.2017 14:00:00 11,6 5,2 11,0 8,2 6,9 61 33 93 50 W 995,8 7 30 0,0
23.02.2017 13:00:00 10,9 6,4 8,8 8,1 6,9 53 29 89 48 WZW 996,6 9 1 0,0
23.02.2017 12:00:00 9,5 7,8 8,8 8,1 6,9 45 25 70 38 ZW 996,6 12 0 0,0
23.02.2017 11:00:00 9,2 7,5 8,5 8,1 6,9 37 20 59 32 ZZW 998,1 23 0 0,0
23.02.2017 10:00:00 8,8 7,9 8,3 8,1 6,8 35 19 55 30 ZW 1000,0 6 0 0,0
23.02.2017 09:00:00 8,8 7,2 8,3 8,1 6,8 35 19 59 32 ZW 1001,0 11 0 0,0
23.02.2017 08:00:00 8,7 7,3 8,2 8,1 6,8 31 17 48 26 ZW 1002,2 22 0 0,0
23.02.2017 07:00:00 9,0 7,1 8,8 8,2 6,8 33 18 51 28 ZW 1003,4 30 0 0,0
23.02.2017 06:00:00 9,1 7,0 9,0 8,2 6,8 31 17 54 29 ZW 1004,3 31 0 0,0
23.02.2017 05:00:00 9,3 7,1 9,1 8,2 6,8 32 17 48 26 WZW 1005,4 60 0 0,0
23.02.2017 04:00:00 9,7 7,0 9,2 8,3 6,8 31 17 50 27 WZW 1006,6 60 0 0,0
23.02.2017 03:00:00 9,6 7,4 9,1 8,3 6,8 31 17 53 28 WZW 1007,6 57 0 0,0
23.02.2017 02:00:00 9,5 8,1 8,9 8,3 6,8 36 19 54 29 WZW 1008,4 33 0 0,0
23.02.2017 01:00:00 9,7 8,8 9,2 8,3 6,8 32 17 53 29 W 1009,0 18 0 0,0
23.02.2017 00:00:00 10,1 8,5 9,5 8,3 6,8 36 19 53 29 W 1009,2 60 0 0,0
22.02.2017 23:00:00 9,8 8,6 9,2 8,4 6,8 35 19 55 30 W 1009,8 57 0 0,0
22.02.2017 22:00:00 9,8 8,7 9,3 8,4 6,8 34 18 57 31 W 1010,0 16 0 0,0
22.02.2017 21:00:00 9,9 8,8 9,5 8,4 6,7 35 19 59 32 W 1010,1 20 0 0,0
22.02.2017 20:00:00 10,0 8,6 9,6 8,4 6,7 41 22 62 34 WZW 1010,0 20 0 0,0
22.02.2017 19:00:00 10,1 8,7 9,8 8,4 6,7 39 21 63 34 W 1010,4 30 0 0,0
22.02.2017 18:00:00 10,3 8,9 9,8 8,5 6,7 40 21 67 36 W 1010,6 32 0 0,0
22.02.2017 17:00:00 10,8 8,4 10,5 8,4 6,7 42 23 66 36 W 1010,6 40 0 0,0
22.02.2017 16:00:00 10,4 8,5 10,5 8,4 6,7 44 24 72 39 W 1010,7 24 0 0,0
22.02.2017 15:00:00 10,4 8,7 10,1 8,4 6,7 46 25 69 37 W 1010,9 21 0 0,0
22.02.2017 14:00:00 10,5 8,6 10,2 8,3 6,7 41 22 64 34 W 1011,2 21 0 0,0
22.02.2017 13:00:00 10,3 9,1 10,0 8,2 6,6 39 21 64 35 W 1011,9 8 0 0,0
22.02.2017 12:00:00 10,7 8,5 9,8 8,1 6,6 41 22 62 34 W 1012,2 16 0 0,0
22.02.2017 11:00:00 9,9 8,7 9,6 8,1 6,7 39 21 59 32 W 1012,0 12 0 0,0
22.02.2017 10:00:00 10,0 8,6 9,5 8,1 6,6 35 19 53 29 W 1012,1 19 0 0,0
22.02.2017 09:00:00 9,9 8,2 9,6 8,1 6,6 34 19 60 33 W 1012,3 17 0 0,0
22.02.2017 08:00:00 10,1 7,9 9,9 8,1 6,6 39 21 65 35 W 1011,7 28 0 0,0
22.02.2017 07:00:00 10,1 7,9 9,9 8,1 6,6 41 22 61 33 W 1011,6 30 0 0,0
22.02.2017 06:00:00 10,3 8,1 10,0 8,1 6,6 39 21 57 31 W 1011,7 31 0 0,0
22.02.2017 05:00:00 10,3 7,9 9,9 8,1 6,6 42 23 64 35 W 1011,9 34 0 0,0
22.02.2017 04:00:00 10,2 8,3 9,1 8,1 6,6 33 18 53 28 W 1012,4 49 0 0,0
22.02.2017 03:00:00 9,7 8,5 9,1 8,1 6,6 34 18 55 30 WZW 1013,2 13 0 0,0
22.02.2017 02:00:00 9,7 8,8 9,1 8,1 6,6 31 17 63 34 WZW 1013,9 12 0 0,0
22.02.2017 01:00:00 9,9 8,2 9,4 8,1 6,5 35 19 61 33 W 1014,9 60 0 0,0
22.02.2017 00:00:00 9,9 8,5 9,3 8,2 6,6 39 21 61 33 W 1015,3 57 0 0,0
21.02.2017 23:00:00 9,9 9,0 9,4 8,2 6,6 34 19 56 30 W 1015,4 31 0 0,0
21.02.2017 22:00:00 10,2 8,5 9,4 8,2 6,6 32 18 49 26 W 1015,6 60 0 0,0
21.02.2017 21:00:00 9,9 8,5 9,3 8,2 6,5 29 16 46 25 W 1015,9 47 0 0,0
21.02.2017 20:00:00 9,9 8,7 9,2 8,3 6,5 26 14 42 23 WZW 1016,0 21 0 0,0
21.02.2017 19:00:00 9,9 9,1 9,4 8,3 6,5 29 16 44 24 WZW 1016,4 20 0 0,0
21.02.2017 18:00:00 9,9 9,3 9,6 8,3 6,5 25 14 37 20 W 1016,7 7 0 0,0
21.02.2017 17:00:00 10,2 9,7 10,0 8,3 6,5 21 11 29 16 WZW 1016,9 4,9 0 0,2
21.02.2017 16:00:00 10,8 9,6 10,6 8,2 6,5 16 9 32 18 W 1017,3 39 0 0,0
21.02.2017 15:00:00 11,1 9,4 11,2 8,1 6,5 19 11 29 16 W 1017,7 56 0 0,0
21.02.2017 14:00:00 10,9 10,0 10,9 8,0 6,5 19 11 33 18 W 1018,2 33 0 0,0
21.02.2017 13:00:00 10,4 9,9 10,1 7,8 6,5 21 11 32 17 W 1018,6 17 0 0,2
21.02.2017 12:00:00 9,9 9,6 9,8 7,8 6,5 21 11 30 16 W 1018,9 4,6 0 0,4
21.02.2017 11:00:00 9,6 9,3 9,5 7,7 6,5 21 12 31 17 W 1018,7 6 0 0,8
21.02.2017 10:00:00 9,5 9,2 9,1 7,7 6,5 21 11 31 17 W 1018,4 3,7 0 1,0
21.02.2017 09:00:00 9,2 8,9 9,1 7,7 6,5 22 12 32 17 W 1018,2 4,0 0 1,2
21.02.2017 08:00:00 9,6 9,3 9,4 7,7 6,5 20 11 27 15 W 1017,9 2,7 0 1,0
21.02.2017 07:00:00 9,7 9,2 9,4 7,6 6,5 16 9 32 17 W 1017,8 2,0 0 0,8
21.02.2017 06:00:00 10,0 9,1 9,6 7,6 6,4 24 13 34 18 W 1017,7 7 0 0,0
21.02.2017 05:00:00 10,1 9,2 9,8 7,6 6,4 21 12 29 16 W 1017,6 12 0 0,0
21.02.2017 04:00:00 10,0 9,4 9,6 7,6 6,5 16 8 26 14 W 1017,8 8 0 0,0
21.02.2017 03:00:00 10,1 9,3 9,8 7,6 6,4 18 10 26 14 W 1017,9 8 0 0,0
21.02.2017 02:00:00 9,9 9,3 9,7 7,6 6,4 21 11 29 16 W 1017,9 8 0 0,0
21.02.2017 01:00:00 9,8 9,2 9,6 7,6 6,4 22 12 34 18 W 1018,3 11 0 0,0
21.02.2017 00:00:00 9,7 8,9 9,4 7,6 6,4 22 12 36 19 W 1018,4 17 0 0,0
20.02.2017 23:00:00 9,5 8,9 9,5 7,6 6,4 26 14 38 20 W 1018,5 13 0 0,0
20.02.2017 22:00:00 9,8 9,2 9,7 7,6 6,4 21 12 37 20 W 1018,6 11 0 0,0
20.02.2017 21:00:00 9,8 9,3 9,6 7,6 6,4 23 12 35 19 W 1018,5 8 0 0,0
20.02.2017 20:00:00 9,8 9,2 9,7 7,6 6,4 28 15 41 22 W 1018,5 11 0 0,0
20.02.2017 19:00:00 10,4 9,3 10,1 7,6 6,4 25 13 35 19 WZW 1018,3 26 0 0,0
20.02.2017 18:00:00 10,5 9,6 10,3 7,5 6,4 21 12 41 22 WZW 1017,7 23 0 0,0
20.02.2017 17:00:00 11,0 10,1 10,8 7,4 6,4 25 13 37 20 W 1018,1 24 0 0,0
20.02.2017 16:00:00 11,1 10,0 11,0 7,3 6,4 25 13 39 21 W 1017,9 30 0 0,0
20.02.2017 15:00:00 10,8 9,9 10,6 7,1 6,4 23 12 38 21 W 1018,2 23 0 0,0
20.02.2017 14:00:00 10,6 9,8 10,2 7,0 6,4 26 14 36 19 W 1018,8 25 0 0,2
20.02.2017 13:00:00 10,2 9,9 9,6 6,9 6,4 21 11 30 16 WZW 1019,4 7 0 0,0
20.02.2017 12:00:00 9,7 9,2 9,5 6,8 6,4 21 11 34 19 WZW 1020,1 4,8 0 0,2
20.02.2017 11:00:00 9,7 8,9 9,1 6,7 6,4 21 11 29 16 WZW 1019,8 20 0 0,0
20.02.2017 10:00:00 9,2 8,9 8,8 6,7 6,4 19 10 27 14 WZW 1020,1 10 0 0,0
20.02.2017 09:00:00 8,7 8,6 8,2 6,6 6,4 17 9 23 13 ZW 1020,2 8 0 0,0
20.02.2017 08:00:00 8,3 8,2 8,0 6,6 6,4 14 7 19 11 ZW 1020,2 5 0 0,0
20.02.2017 07:00:00 8,2 8,1 7,9 6,5 6,4 14 7 22 12 ZW 1020,4 2,5 0 0,0
20.02.2017 06:00:00 8,1 8,0 7,8 6,5 6,4 16 9 22 12 ZW 1020,5 6 0 0,0
20.02.2017 05:00:00 8,1 7,8 7,9 6,5 6,3 16 8 22 12 ZW 1020,7 2,4 0 0,2
20.02.2017 04:00:00 8,2 7,8 7,6 6,5 6,4 13 7 17 9 ZW 1021,1 10 0 0,0
20.02.2017 03:00:00 7,8 7,4 7,6 6,5 6,4 11 6 16 8 ZZW 1021,9 5 0 0,0
20.02.2017 02:00:00 8,1 7,0 7,6 6,4 6,4 9 5 13 7 ZW 1022,5 7 0 0,0
20.02.2017 01:00:00 8,0 6,5 7,8 6,4 6,3 10 5 14 8 ZW 1022,8 12 0 0,0
20.02.2017 00:00:00 8,1 6,4 7,8 6,4 6,3 10 6 15 8 ZZW 1022,9 13 0 0,0
19.02.2017 23:00:00 8,0 6,3 7,8 6,4 6,3 11 6 16 9 ZW 1023,1 13 0 0,0
19.02.2017 22:00:00 8,1 6,1 7,8 6,5 6,3 12 7 21 11 WZW 1023,3 16 0 0,0
19.02.2017 21:00:00 8,2 5,7 6,1 6,5 6,3 13 7 20 11 WZW 1023,3 19 0 0,0
19.02.2017 20:00:00 7,9 5,4 6,8 6,6 6,3 10 6 23 12 WZW 1023,2 14 0 0,0
19.02.2017 19:00:00 8,4 6,0 7,7 6,7 6,3 16 9 25 14 W 1023,0 16 0 0,0
19.02.2017 18:00:00 9,6 6,5 9,2 6,6 6,3 17 9 28 15 W 1022,5 19 0 0,0
19.02.2017 17:00:00 10,2 6,2 10,3 6,5 6,3 21 11 29 16 W 1022,5 29 0 0,0
19.02.2017 16:00:00 10,4 6,2 10,5 6,4 6,3 21 12 32 17 W 1022,6 27 0 0,0
19.02.2017 15:00:00 10,2 6,7 10,4 6,2 6,3 17 9 31 17 W 1022,7 14 0 0,0
19.02.2017 14:00:00 10,1 6,6 9,8 5,9 6,3 22 12 33 18 W 1023,0 11 2 0,0
19.02.2017 13:00:00 9,4 5,9 9,8 5,7 6,3 19 11 27 14 W 1023,3 12 1 0,0
19.02.2017 12:00:00 9,3 5,5 8,1 5,5 6,3 19 10 26 14 W 1023,8 9 24 0,2
19.02.2017 11:00:00 7,4 4,7 6,8 5,4 6,3 16 9 23 12 WZW 1023,9 6 56 0,0
19.02.2017 10:00:00 4,2 4,2 3,3 5,4 6,2 8 5 12 7 ZW 1024,1 6 55 0,0
19.02.2017 09:00:00 2,1 2,1 2,0 5,5 6,2 10 6 18 10 ZZW 1023,9 2,5 8 0,0
19.02.2017 08:00:00 2,4 2,4 2,3 5,6 6,2 10 6 16 9 ZZW 1023,9 0,8 0 0,0
19.02.2017 07:00:00 2,7 2,7 1,8 5,7 6,2 10 5 17 9 ZZW 1024,2 0,5 0 0,0
19.02.2017 06:00:00 2,9 2,9 2,5 5,8 6,3 9 5 19 10 ZZW 1024,2 0,6 0 0,0
19.02.2017 05:00:00 3,3 3,3 3,3 5,8 6,2 13 7 19 10 ZZW 1024,2 0,5 0 0,0
19.02.2017 04:00:00 3,6 3,6 3,6 5,9 6,2 12 7 21 11 ZZW 1024,1 0,3 0 0,0
19.02.2017 03:00:00 3,9 3,9 3,7 5,9 6,2 16 9 21 11 ZZW 1024,9 0,3 0 0,0
19.02.2017 02:00:00 3,6 3,6 3,2 6,0 6,2 11 6 17 9 ZZW 1025,3 0,2 0 0,0
19.02.2017 01:00:00 3,1 3,1 3,1 6,0 6,2 12 6 16 8 ZZW 1025,8 0,2 0 0,0
19.02.2017 00:00:00 3,3 3,3 3,3 6,1 6,2 7 4 13 7 ZZW 1025,9 0,2 0 0,0
18.02.2017 23:00:00 3,5 3,4 3,4 6,2 6,2 9 5 15 8 ZW 1025,8 0,2 0 0,0
18.02.2017 22:00:00 4,3 4,2 4,1 6,3 6,2 11 6 15 8 ZZW 1025,8 0,4 0 0,0
18.02.2017 21:00:00 4,6 4,5 4,5 6,4 6,2 8 5 16 9 ZZW 1025,9 0,2 0 0,0
18.02.2017 20:00:00 5,2 4,9 3,8 6,6 6,2 10 5 15 8 ZZW 1026,0 1,1 0 0,0
18.02.2017 19:00:00 5,8 4,8 4,2 6,7 6,2 8 4 15 8 ZZW 1026,0 4,0 0 0,0
18.02.2017 18:00:00 7,6 5,2 6,6 6,8 6,2 7 4 19 11 Z 1025,8 10 35 0,0
18.02.2017 17:00:00 8,6 5,9 9,5 6,7 6,2 13 7 19 10 Z 1025,7 11 58 0,0
18.02.2017 16:00:00 9,5 5,9 10,8 6,5 6,2 12 6 18 10 ZZW 1026,0 12 48 0,0

tt = temperatuur
td = dauwpunt
tt 5cm = temperatuur 5cm
tt -20cm = temperatuur -20cm
tt -100cm = temperatuur -100cm
ff = windsnelheid
fx = windstoten
dd = windrichting
ppp = luchtdruk
vv = zicht
sd = Zonneschijnduur
rr = neerslag

Weerstations in de omgeving